Time,TemperatureF,DewpointF,PressureIn,WindDirection,WindDirectionDegrees,WindSpeedMPH,WindSpeedGustMPH,Humidity,HourlyPrecipIn,Conditions,Clouds,dailyrainin,SolarRadiationWatts/m^2,SoftwareType,DateUTC
2013-11-03 00:01:00,44.0,33.0,-100.00,South,188,3.0,16.0,65,0.00,,,0.00,0.000000,,2013-11-03 04:01:00,
2013-11-03 00:44:00,44.0,33.0,-100.00,South,188,3.0,16.0,65,0.00,,,0.00,0.000000,,2013-11-03 04:44:00,
2013-11-03 00:52:00,44.0,33.0,-100.00,South,188,3.0,16.0,65,0.00,,,0.00,0.000000,,2013-11-03 04:52:00,
2013-11-03 01:01:00,43.0,32.0,-100.00,SSW,210,2.0,12.0,66,0.00,,,-99.99,0.000000,,2013-11-03 05:01:00,
2013-11-03 01:43:00,43.0,32.0,-100.00,SSW,210,2.0,12.0,66,0.00,,,-99.99,0.000000,,2013-11-03 05:43:00,
2013-11-03 01:53:00,43.0,32.0,-100.00,SSW,210,2.0,12.0,66,0.00,,,-99.99,0.000000,,2013-11-03 05:53:00,
2013-11-03 01:01:00,44.0,33.0,-100.00,SE,133,3.0,12.0,64,0.00,,,0.00,0.000000,,2013-11-03 06:01:00,
2013-11-03 01:43:00,44.0,33.0,-100.00,SE,133,3.0,12.0,64,0.00,,,0.00,0.000000,,2013-11-03 06:43:00,
2013-11-03 01:53:00,44.0,33.0,-100.00,SE,133,3.0,12.0,64,0.00,,,0.00,0.000000,,2013-11-03 06:53:00,
2013-11-03 02:01:00,43.0,32.0,-100.00,NE,55,3.0,6.0,65,0.00,,,0.00,0.000000,,2013-11-03 07:01:00,
2013-11-03 02:22:00,43.0,32.0,-100.00,NE,55,3.0,6.0,65,0.00,,,0.00,0.000000,,2013-11-03 07:22:00,
2013-11-03 02:32:00,43.0,32.0,-100.00,NE,55,3.0,6.0,65,0.00,,,0.00,0.000000,,2013-11-03 07:32:00,
2013-11-03 02:42:00,43.0,32.0,-100.00,NE,55,3.0,6.0,65,0.00,,,0.00,0.000000,,2013-11-03 07:42:00,
2013-11-03 02:52:00,43.0,32.0,-100.00,NE,55,3.0,6.0,65,0.00,,,0.00,0.000000,,2013-11-03 07:52:00,
2013-11-03 03:01:00,44.0,31.0,-100.00,SE,129,3.0,11.0,60,0.00,,,0.00,0.000000,,2013-11-03 08:01:00,
2013-11-03 03:21:00,44.0,31.0,-100.00,SE,129,3.0,11.0,60,0.00,,,0.00,0.000000,,2013-11-03 08:21:00,
2013-11-03 03:32:00,44.0,31.0,-100.00,SE,129,3.0,11.0,60,0.00,,,0.00,0.000000,,2013-11-03 08:32:00,
2013-11-03 03:42:00,44.0,31.0,-100.00,SE,129,3.0,11.0,60,0.00,,,0.00,0.000000,,2013-11-03 08:42:00,
2013-11-03 03:52:00,44.0,31.0,-100.00,SE,129,3.0,11.0,60,0.00,,,0.00,0.000000,,2013-11-03 08:52:00,
2013-11-03 04:01:00,44.0,32.0,-100.00,ESE,115,2.0,7.0,62,0.00,,,0.00,0.000000,,2013-11-03 09:01:00,
2013-11-03 04:42:00,44.0,32.0,-100.00,ESE,115,2.0,7.0,62,0.00,,,0.00,0.000000,,2013-11-03 09:42:00,
2013-11-03 04:53:00,44.0,32.0,-100.00,ESE,115,2.0,7.0,62,0.00,,,0.00,0.000000,,2013-11-03 09:53:00,
2013-11-03 05:01:00,44.0,34.0,-100.00,WSW,257,2.0,12.0,67,0.00,,,0.00,0.000000,,2013-11-03 10:01:00,
2013-11-03 05:23:00,44.0,34.0,-100.00,WSW,257,2.0,12.0,67,0.00,,,0.00,0.000000,,2013-11-03 10:23:00,
2013-11-03 05:33:00,44.0,34.0,-100.00,WSW,257,2.0,12.0,67,0.00,,,0.00,0.000000,,2013-11-03 10:33:00,
2013-11-03 05:42:00,44.0,34.0,-100.00,WSW,257,2.0,12.0,67,0.00,,,0.00,0.000000,,2013-11-03 10:42:00,
2013-11-03 05:53:00,44.0,34.0,-100.00,WSW,257,2.0,12.0,67,0.00,,,0.00,0.000000,,2013-11-03 10:53:00,
2013-11-03 06:01:00,42.0,35.0,-100.00,NNE,24,1.0,9.0,76,0.00,,,0.00,0.000000,,2013-11-03 11:01:00,
2013-11-03 06:22:00,42.0,35.0,-100.00,NNE,24,1.0,9.0,76,0.00,,,0.00,0.000000,,2013-11-03 11:22:00,
2013-11-03 06:33:00,42.0,35.0,-100.00,NNE,24,1.0,9.0,76,0.00,,,0.00,0.000000,,2013-11-03 11:33:00,
2013-11-03 06:43:00,42.0,35.0,-100.00,NNE,24,1.0,9.0,76,0.00,,,0.00,0.000000,,2013-11-03 11:43:00,
2013-11-03 06:52:00,42.0,35.0,-100.00,NNE,24,1.0,9.0,76,0.00,,,0.00,0.000000,,2013-11-03 11:52:00,
2013-11-03 07:01:00,42.0,35.0,-100.00,NNE,13,3.0,10.0,77,0.00,,,0.00,1.000000,,2013-11-03 12:01:00,
2013-11-03 07:22:00,42.0,35.0,-100.00,NNE,13,3.0,10.0,77,0.00,,,0.00,1.000000,,2013-11-03 12:22:00,
2013-11-03 07:32:00,42.0,35.0,-100.00,NNE,13,3.0,10.0,77,0.00,,,0.00,1.000000,,2013-11-03 12:32:00,
2013-11-03 07:42:00,42.0,35.0,-100.00,NNE,13,3.0,10.0,77,0.00,,,0.00,1.000000,,2013-11-03 12:42:00,
2013-11-03 07:52:00,42.0,35.0,-100.00,NNE,13,3.0,10.0,77,0.00,,,0.00,1.000000,,2013-11-03 12:52:00,
2013-11-03 08:01:00,42.0,35.0,-100.00,North,350,4.0,9.0,76,0.00,,,0.00,35.000000,,2013-11-03 13:01:00,
2013-11-03 08:42:00,42.0,35.0,-100.00,North,350,4.0,9.0,76,0.00,,,0.00,35.000000,,2013-11-03 13:42:00,
2013-11-03 08:52:00,42.0,35.0,-100.00,North,350,4.0,9.0,76,0.00,,,0.00,35.000000,,2013-11-03 13:52:00,
2013-11-03 09:01:00,44.0,34.0,-100.00,North,0,4.0,8.0,68,0.00,,,0.00,107.000000,,2013-11-03 14:01:00,
2013-11-03 09:22:00,44.0,34.0,-100.00,North,0,4.0,8.0,68,0.00,,,0.00,107.000000,,2013-11-03 14:22:00,
2013-11-03 09:32:00,44.0,34.0,-100.00,North,0,4.0,8.0,68,0.00,,,0.00,107.000000,,2013-11-03 14:32:00,
2013-11-03 09:42:00,44.0,34.0,-100.00,North,0,4.0,8.0,68,0.00,,,0.00,107.000000,,2013-11-03 14:42:00,
2013-11-03 09:52:00,44.0,34.0,-100.00,North,0,4.0,8.0,68,0.00,,,0.00,107.000000,,2013-11-03 14:52:00,
2013-11-03 10:01:00,46.0,33.0,-100.00,WNW,302,3.0,11.0,60,0.00,,,0.00,122.000000,,2013-11-03 15:01:00,
2013-11-03 10:43:00,46.0,33.0,-100.00,WNW,302,3.0,11.0,60,0.00,,,0.00,122.000000,,2013-11-03 15:43:00,
2013-11-03 10:53:00,46.0,33.0,-100.00,WNW,302,3.0,11.0,60,0.00,,,0.00,122.000000,,2013-11-03 15:53:00,
2013-11-03 11:01:00,48.0,33.0,-100.00,NNW,344,6.0,11.0,56,0.00,,,0.00,373.000000,,2013-11-03 16:01:00,
2013-11-03 11:23:00,48.0,33.0,-100.00,NNW,344,6.0,11.0,56,0.00,,,0.00,373.000000,,2013-11-03 16:23:00,
2013-11-03 11:34:00,48.0,33.0,-100.00,NNW,344,6.0,11.0,56,0.00,,,0.00,373.000000,,2013-11-03 16:34:00,
2013-11-03 11:43:00,48.0,33.0,-100.00,NNW,344,6.0,11.0,56,0.00,,,0.00,373.000000,,2013-11-03 16:43:00,
2013-11-03 11:53:00,48.0,33.0,-100.00,NNW,344,6.0,11.0,56,0.00,,,0.00,373.000000,,2013-11-03 16:53:00,
2013-11-03 12:01:00,50.0,40.0,-100.00,North,356,5.0,14.0,68,0.00,,,0.00,447.000000,,2013-11-03 17:01:00,
2013-11-03 12:23:00,50.0,40.0,-100.00,North,356,5.0,14.0,68,0.00,,,0.00,447.000000,,2013-11-03 17:23:00,
2013-11-03 12:33:00,50.0,40.0,-100.00,North,356,5.0,14.0,68,0.00,,,0.00,447.000000,,2013-11-03 17:33:00,
2013-11-03 12:44:00,50.0,40.0,-100.00,North,356,5.0,14.0,68,0.00,,,0.00,447.000000,,2013-11-03 17:44:00,
2013-11-03 12:53:00,50.0,40.0,-100.00,North,356,5.0,14.0,68,0.00,,,0.00,447.000000,,2013-11-03 17:53:00,
2013-11-03 13:01:00,51.0,30.0,-100.00,NNW,342,5.0,14.0,45,0.00,,,0.00,534.000000,,2013-11-03 18:01:00,
2013-11-03 13:42:00,51.0,30.0,-100.00,NNW,342,5.0,14.0,45,0.00,,,0.00,534.000000,,2013-11-03 18:42:00,
2013-11-03 13:52:00,51.0,30.0,-100.00,NNW,342,5.0,14.0,45,0.00,,,0.00,534.000000,,2013-11-03 18:52:00,
2013-11-03 14:01:00,52.0,31.0,-100.00,NNW,336,3.0,15.0,44,0.00,,,0.00,464.000000,,2013-11-03 19:01:00,
2013-11-03 14:22:00,52.0,31.0,-100.00,NNW,336,3.0,15.0,44,0.00,,,0.00,464.000000,,2013-11-03 19:22:00,
2013-11-03 14:33:00,52.0,31.0,-100.00,NNW,336,3.0,15.0,44,0.00,,,0.00,464.000000,,2013-11-03 19:33:00,
2013-11-03 14:42:00,52.0,31.0,-100.00,NNW,336,3.0,15.0,44,0.00,,,0.00,464.000000,,2013-11-03 19:42:00,
2013-11-03 14:53:00,52.0,31.0,-100.00,NNW,336,3.0,15.0,44,0.00,,,0.00,464.000000,,2013-11-03 19:53:00,
2013-11-03 15:01:00,51.0,28.0,-100.00,NNW,348,4.0,12.0,41,0.00,,,0.00,482.000000,,2013-11-03 20:01:00,
2013-11-03 15:22:00,51.0,28.0,-100.00,NNW,348,4.0,12.0,41,0.00,,,0.00,482.000000,,2013-11-03 20:22:00,
2013-11-03 15:32:00,51.0,28.0,-100.00,NNW,348,4.0,12.0,41,0.00,,,0.00,482.000000,,2013-11-03 20:32:00,
2013-11-03 15:42:00,51.0,28.0,-100.00,NNW,348,4.0,12.0,41,0.00,,,0.00,482.000000,,2013-11-03 20:42:00,
2013-11-03 15:52:00,51.0,28.0,-100.00,NNW,348,4.0,12.0,41,0.00,,,0.00,482.000000,,2013-11-03 20:52:00,
2013-11-03 16:01:00,49.0,26.0,-100.00,NW,310,3.0,12.0,41,0.00,,,0.00,206.000000,,2013-11-03 21:01:00,
2013-11-03 16:22:00,49.0,26.0,-100.00,NW,310,3.0,12.0,41,0.00,,,0.00,206.000000,,2013-11-03 21:22:00,
2013-11-03 16:34:00,49.0,26.0,-100.00,NW,310,3.0,12.0,41,0.00,,,0.00,206.000000,,2013-11-03 21:34:00,
2013-11-03 16:43:00,49.0,26.0,-100.00,NW,310,3.0,12.0,41,0.00,,,0.00,206.000000,,2013-11-03 21:43:00,
2013-11-03 16:55:00,49.0,26.0,-100.00,NW,310,3.0,12.0,41,0.00,,,0.00,206.000000,,2013-11-03 21:55:00,
2013-11-03 17:01:00,45.0,25.0,-100.00,NNW,342,3.0,6.0,46,0.00,,,0.00,24.000000,,2013-11-03 22:01:00,
2013-11-03 17:23:00,45.0,25.0,-100.00,NNW,342,3.0,6.0,46,0.00,,,0.00,24.000000,,2013-11-03 22:23:00,
2013-11-03 17:34:00,45.0,25.0,-100.00,NNW,342,3.0,6.0,46,0.00,,,0.00,24.000000,,2013-11-03 22:34:00,
2013-11-03 17:43:00,45.0,25.0,-100.00,NNW,342,3.0,6.0,46,0.00,,,0.00,24.000000,,2013-11-03 22:43:00,
2013-11-03 17:52:00,45.0,25.0,-100.00,NNW,342,3.0,6.0,46,0.00,,,0.00,24.000000,,2013-11-03 22:52:00,
2013-11-03 18:01:00,44.0,26.0,-100.00,NNW,343,4.0,7.0,49,0.00,,,0.00,3.000000,,2013-11-03 23:01:00,
2013-11-03 18:42:00,44.0,26.0,-100.00,NNW,343,4.0,7.0,49,0.00,,,0.00,3.000000,,2013-11-03 23:42:00,
2013-11-03 18:53:00,44.0,26.0,-100.00,NNW,343,4.0,7.0,49,0.00,,,0.00,3.000000,,2013-11-03 23:53:00,
2013-11-03 19:01:00,44.0,24.0,-100.00,NNW,329,3.0,10.0,45,0.00,,,0.00,0.000000,,2013-11-04 00:01:00,
2013-11-03 19:22:00,44.0,24.0,-100.00,NNW,329,3.0,10.0,45,0.00,,,0.00,0.000000,,2013-11-04 00:22:00,
2013-11-03 19:32:00,44.0,24.0,-100.00,NNW,329,3.0,10.0,45,0.00,,,0.00,0.000000,,2013-11-04 00:32:00,
2013-11-03 19:42:00,44.0,24.0,-100.00,NNW,329,3.0,10.0,45,0.00,,,0.00,0.000000,,2013-11-04 00:42:00,
2013-11-03 19:52:00,44.0,24.0,-100.00,NNW,329,3.0,10.0,45,0.00,,,0.00,0.000000,,2013-11-04 00:52:00,
2013-11-03 20:01:00,43.0,24.0,-100.00,East,91,2.0,9.0,47,0.00,,,0.00,0.000000,,2013-11-04 01:01:00,
2013-11-03 20:42:00,43.0,24.0,-100.00,East,91,2.0,9.0,47,0.00,,,0.00,0.000000,,2013-11-04 01:42:00,
2013-11-03 20:52:00,43.0,24.0,-100.00,East,91,2.0,9.0,47,0.00,,,0.00,0.000000,,2013-11-04 01:52:00,
2013-11-03 21:01:00,40.0,23.0,-100.00,NNE,31,2.0,4.0,51,0.00,,,0.00,0.000000,,2013-11-04 02:01:00,
2013-11-03 21:42:00,40.0,23.0,-100.00,NNE,31,2.0,4.0,51,0.00,,,0.00,0.000000,,2013-11-04 02:42:00,
2013-11-03 21:53:00,40.0,23.0,-100.00,NNE,31,2.0,4.0,51,0.00,,,0.00,0.000000,,2013-11-04 02:53:00,
2013-11-03 22:01:00,39.0,22.0,-100.00,North,2,1.0,2.0,51,0.00,,,0.00,0.000000,,2013-11-04 03:01:00,
2013-11-03 22:44:00,39.0,22.0,-100.00,North,2,1.0,2.0,51,0.00,,,0.00,0.000000,,2013-11-04 03:44:00,
2013-11-03 22:54:00,39.0,22.0,-100.00,North,2,1.0,2.0,51,0.00,,,0.00,0.000000,,2013-11-04 03:54:00,
2013-11-03 23:01:00,39.0,23.0,-100.00,NNE,18,2.0,4.0,52,0.00,,,0.00,0.000000,,2013-11-04 04:01:00,
2013-11-03 23:43:00,39.0,23.0,-100.00,NNE,18,2.0,4.0,52,0.00,,,0.00,0.000000,,2013-11-04 04:43:00,
2013-11-03 23:53:00,39.0,23.0,-100.00,NNE,18,2.0,4.0,52,0.00,,,0.00,0.000000,,2013-11-04 04:53:00,